Zurück zum Katalog

SL-16 DEB

AktivLEO
NORAD 22349·DEBRIS·🇷🇺 Russia

Gestartet Dec 25, 1992 von Baikonur Cosmodrome

Loading…

Nächste Überflüge (nächste 24 Stunden)

TLE

AktuellSource: Space-Track

Epoche: Sep 14, 2026, 14:51 UTC

1 22349U 92093AN  26257.61942160  .00000354  00000-0  32238-3 0  9997
2 22349  70.8186 121.2644 0182557  29.8901   0.6435 13.82812688695240

Verfolge SL-16 DEB in Echtzeit mit AllMySat

Download on the App Store